TimeMST,TemperatureF,Dew PointF,Humidity,Sea Level PressureIn,VisibilityMPH,Wind Direction,Wind SpeedMPH,Gust SpeedMPH,PrecipitationIn,Events,Conditions,WindDirDegrees,DateUTC
12:53 AM,57.0,37.9,49,30.02,10.0,Calm,Calm,-,N/A,,Clear,0,2013-03-05 07:53:00
1:53 AM,57.0,37.0,47,30.03,10.0,Calm,Calm,-,N/A,,Clear,0,2013-03-05 08:53:00
2:53 AM,55.9,37.0,49,30.02,10.0,NE,4.6,-,N/A,,Clear,40,2013-03-05 09:53:00
3:53 AM,54.0,37.9,55,30.02,10.0,Calm,Calm,-,N/A,,Clear,0,2013-03-05 10:53:00
6:53 AM,51.1,37.0,59,30.05,10.0,Calm,Calm,-,N/A,,Clear,0,2013-03-05 13:53:00
7:53 AM,53.1,37.0,55,30.07,10.0,Calm,Calm,-,N/A,,Clear,0,2013-03-05 14:53:00
8:53 AM,59.0,37.9,46,30.08,10.0,Calm,Calm,-,N/A,,Clear,0,2013-03-05 15:53:00
9:53 AM,63.0,37.0,38,30.07,10.0,Calm,Calm,-,N/A,,Clear,0,2013-03-05 16:53:00
10:53 AM,66.9,37.0,33,30.06,10.0,Calm,Calm,-,N/A,,Clear,0,2013-03-05 17:53:00
11:53 AM,70.0,36.0,29,30.05,10.0,Calm,Calm,-,N/A,,Clear,0,2013-03-05 18:53:00
12:53 PM,73.0,33.1,23,30.03,10.0,SSE,4.6,-,N/A,,Clear,160,2013-03-05 19:53:00
1:53 PM,75.0,32.0,21,29.99,10.0,SSW,6.9,-,N/A,,Clear,210,2013-03-05 20:53:00
2:53 PM,75.9,30.0,19,29.97,10.0,Variable,4.6,-,N/A,,Clear,0,2013-03-05 21:53:00
3:53 PM,75.0,30.0,19,29.96,10.0,ENE,3.5,-,N/A,,Clear,60,2013-03-05 22:53:00
4:53 PM,75.9,26.1,16,29.94,10.0,South,5.8,-,N/A,,Clear,180,2013-03-05 23:53:00
5:53 PM,73.9,26.1,17,29.94,10.0,Calm,Calm,-,N/A,,Clear,0,2013-03-06 00:53:00
6:53 PM,72.0,28.0,20,29.94,10.0,Calm,Calm,-,N/A,,Clear,0,2013-03-06 01:53:00
7:53 PM,69.1,32.0,25,29.95,10.0,NE,4.6,-,N/A,,Clear,50,2013-03-06 02:53:00
8:53 PM,68.0,33.1,27,29.95,10.0,Calm,Calm,-,N/A,,Clear,0,2013-03-06 03:53:00
9:53 PM,64.9,36.0,34,29.96,10.0,Calm,Calm,-,N/A,,Clear,0,2013-03-06 04:53:00
10:53 PM,63.0,35.1,35,29.96,10.0,Calm,Calm,-,N/A,,Clear,0,2013-03-06 05:53:00
11:53 PM,61.0,34.0,36,29.95,10.0,NE,3.5,-,N/A,,Clear,50,2013-03-06 06:53:00